Simultaneous Nadir Overpasses (SNOs) Predictions

Prediction of SNOs between GOES-16 and TERRA Satellite Orbit:

Table of predicted SNOs for the next 14.0 days since TLE Epoch: 12/5/2020
Index Date Time (GOES-16) GOES-16 Lat,Lon TERRA Lat,Lon Distance(km) Time Diff (sec)
1 12/05/2020 03:47:45 0.03, -75.20 -0.77, -78.98 429.21 80
2 12/07/2020 03:35:32 0.02, -75.21 -0.17, -76.01 92.04 80
3 12/09/2020 03:20:40 0.02, -75.22 0.49, -73.06 245.80 80
4 12/09/2020 15:41:55 -0.02, -75.25 0.63, -78.21 336.70 80
5 12/11/2020 15:32:23 -0.02, -75.27 -0.04, -75.26 2.51 80
6 12/13/2020 15:20:10 -0.02, -75.29 -0.65, -72.30 340.34 80
7 12/14/2020 03:41:34 0.01, -75.27 -0.45, -77.49 252.50 80
8 12/16/2020 03:26:41 0.01, -75.29 0.17, -74.53 86.71 80
9 12/16/2020 15:47:55 -0.00, -75.32 0.94, -79.68 495.78 80
10 12/18/2020 03:14:28 -0.00, -75.32 0.79, -71.56 426.68 80
11 12/18/2020 15:35:42 0.00, -75.36 0.32, -76.72 155.58 80
